| time (UTC) | temp F | wind direction | speed knots | gust knots | rain 1hr in | rain 24hr in | rain mn in | humidity % | barometer mb |
| 20260504231502 | 63 | 180 | 0.0 | 0.0 | 0.00 | 0.01 | 0.01 | 54 | 1004.6 |
| 20260504230502 | 63 | 180 | 0.0 | 0.0 | 0.00 | 0.01 | 0.01 | 55 | 1004.4 |
| 20260504225501 | 63 | 180 | 0.0 | 0.0 | 0.00 | 0.01 | 0.01 | 54 | 1004.3 |
| 20260504225002 | 64 | 195 | 0.0 | 0.9 | 0.00 | 0.01 | 0.01 | 53 | 1004.4 |
| 20260504224502 | 64 | 204 | 0.9 | 2.6 | 0.00 | 0.01 | 0.01 | 53 | 1004.4 |
| 20260504224001 | 64 | 253 | 0.0 | 4.3 | 0.00 | 0.01 | 0.01 | 52 | 1004.4 |
| 20260504223501 | 65 | 50 | 0.0 | 0.9 | 0.00 | 0.01 | 0.01 | 53 | 1004.4 |
| 20260504223002 | 65 | 292 | 0.0 | 1.7 | 0.00 | 0.01 | 0.01 | 54 | 1004.4 |
| 20260504222501 | 65 | 346 | 1.7 | 2.6 | 0.00 | 0.01 | 0.01 | 52 | 1004.3 |
| 20260504222002 | 65 | 162 | 0.9 | 0.9 | 0.00 | 0.01 | 0.01 | 52 | 1004.3 |
| 20260504221501 | 66 | 274 | 0.9 | 1.7 | 0.00 | 0.01 | 0.01 | 51 | 1004.3 |
| 20260504221001 | 66 | 237 | 0.0 | 0.9 | 0.00 | 0.01 | 0.01 | 52 | 1004.4 |
| 20260504220502 | 65 | 183 | 2.6 | 2.6 | 0.00 | 0.01 | 0.01 | 51 | 1004.4 |
| 20260504220002 | 65 | 252 | 0.9 | 1.7 | 0.00 | 0.01 | 0.01 | 52 | 1004.4 |
| 20260504215501 | 64 | 261 | 0.9 | 2.6 | 0.00 | 0.01 | 0.01 | 55 | 1004.4 |
| 20260504215001 | 64 | 217 | 1.7 | 4.3 | 0.00 | 0.01 | 0.01 | 54 | 1004.5 |
| 20260504214002 | 64 | 268 | 2.6 | 7.0 | 0.00 | 0.01 | 0.01 | 52 | 1004.5 |
| 20260504213001 | 65 | 270 | 4.3 | 7.8 | 0.00 | 0.01 | 0.01 | 51 | 1004.5 |
| 20260504212502 | 64 | 273 | 1.7 | 7.0 | 0.00 | 0.01 | 0.01 | 53 | 1004.3 |
| 20260504212002 | 64 | 293 | 4.3 | 7.8 | 0.00 | 0.01 | 0.01 | 51 | 1004.3 |
| 20260504211002 | 65 | 329 | 4.3 | 10.4 | 0.00 | 0.01 | 0.01 | 51 | 1004.1 |
| 20260504210502 | 65 | 292 | 2.6 | 6.1 | 0.00 | 0.01 | 0.01 | 52 | 1004.1 |
| 20260504210002 | 65 | 282 | 5.2 | 6.1 | 0.00 | 0.01 | 0.01 | 51 | 1004.1 |
| 20260504205001 | 65 | 270 | 8.7 | 12.2 | 0.00 | 0.01 | 0.01 | 51 | 1004.1 |
| 20260504204502 | 66 | 274 | 5.2 | 8.7 | 0.00 | 0.01 | 0.01 | 53 | 1004.2 |
| 20260504203501 | 64 | 22 | 6.1 | 8.7 | 0.00 | 0.01 | 0.01 | 52 | 1004.1 |
| 20260504203002 | 64 | 292 | 7.8 | 13.0 | 0.00 | 0.01 | 0.01 | 52 | 1004.1 |
| 20260504202502 | 64 | 275 | 7.8 | 12.2 | 0.00 | 0.01 | 0.01 | 52 | 1004.2 |
| 20260504202002 | 64 | 290 | 7.8 | 13.9 | 0.00 | 0.01 | 0.01 | 52 | 1004.2 |
| 20260504201002 | 64 | 280 | 6.1 | 12.2 | 0.00 | 0.01 | 0.01 | 52 | 1004.1 |
| 20260504200002 | 64 | 301 | 5.2 | 10.4 | 0.00 | 0.01 | 0.01 | 53 | 1004.1 |
| 20260504195502 | 65 | 257 | 4.3 | 7.8 | 0.00 | 0.01 | 0.01 | 52 | 1004.1 |
| 20260504195002 | 64 | 248 | 5.2 | 11.3 | 0.00 | 0.01 | 0.01 | 53 | 1004.3 |
| 20260504194502 | 65 | 280 | 5.2 | 11.3 | 0.00 | 0.01 | 0.01 | 53 | 1004.3 |
| 20260504194002 | 65 | 248 | 4.3 | 5.2 | 0.00 | 0.01 | 0.01 | 57 | 1004.3 |
| 20260504193501 | 64 | 270 | 2.6 | 6.1 | 0.00 | 0.01 | 0.01 | 58 | 1004.4 |
| 20260504193002 | 63 | 172 | 3.5 | 7.0 | 0.00 | 0.01 | 0.01 | 58 | 1004.4 |
| 20260504192002 | 63 | 277 | 4.3 | 6.1 | 0.00 | 0.01 | 0.01 | 60 | 1004.3 |
| 20260504191502 | 62 | 259 | 4.3 | 6.1 | 0.00 | 0.01 | 0.01 | 63 | 1004.3 |
| 20260504191002 | 62 | 270 | 4.3 | 7.8 | 0.00 | 0.01 | 0.01 | 63 | 1004.5 |
| 20260504190502 | 62 | 264 | 4.3 | 7.8 | 0.00 | 0.01 | 0.01 | 63 | 1004.5 |
| 20260504190002 | 62 | 271 | 3.5 | 7.0 | 0.00 | 0.01 | 0.01 | 65 | 1004.7 |
| 20260504185503 | 61 | 283 | 4.3 | 7.0 | 0.00 | 0.01 | 0.01 | 66 | 1004.7 |
| 20260504185002 | 59 | 270 | 5.2 | 10.4 | 0.00 | 0.01 | 0.01 | 67 | 1004.8 |
| 20260504184502 | 59 | 318 | 6.1 | 13.0 | 0.00 | 0.01 | 0.01 | 68 | 1004.9 |
| 20260504183502 | 58 | 270 | 1.7 | 5.2 | 0.00 | 0.01 | 0.01 | 73 | 1005.0 |
| 20260504183002 | 58 | 270 | 2.6 | 5.2 | 0.01 | 0.01 | 0.01 | 73 | 1005.0 |
| 20260504182002 | 57 | 278 | 1.7 | 5.2 | 0.01 | 0.01 | 0.01 | 76 | 1005.0 |
| 20260504181502 | 56 | 274 | 2.6 | 4.3 | 0.01 | 0.01 | 0.01 | 76 | 1005.0 |
| 20260504181002 | 56 | 294 | 2.6 | 5.2 | 0.01 | 0.01 | 0.01 | 76 | 1004.9 |
| 20260504180502 | 56 | 298 | 4.3 | 6.1 | 0.01 | 0.01 | 0.01 | 77 | 1004.9 |
| 20260504180002 | 55 | 279 | 4.3 | 7.0 | 0.01 | 0.01 | 0.01 | 77 | 1005.2 |
| 20260504175502 | 55 | 270 | 4.3 | 6.1 | 0.01 | 0.01 | 0.01 | 79 | 1005.2 |
| 20260504175002 | 54 | 270 | 2.6 | 5.2 | 0.01 | 0.01 | 0.01 | 80 | 1005.2 |
| 20260504174502 | 53 | 280 | 2.6 | 5.2 | 0.01 | 0.01 | 0.01 | 82 | 1005.3 |
| 20260504174002 | 53 | 203 | 2.6 | 5.2 | 0.01 | 0.01 | 0.01 | 82 | 1005.3 |
| 20260504173502 | 53 | 270 | 4.3 | 5.2 | 0.01 | 0.01 | 0.01 | 83 | 1005.3 |
| 20260504173002 | 53 | 270 | 4.3 | 5.2 | 0.00 | 0.00 | 0.00 | 81 | 1005.3 |
| 20260504172002 | 55 | 288 | 4.3 | 7.8 | 0.00 | 0.00 | 0.00 | 78 | 1005.0 |
| 20260504171502 | 55 | 270 | 4.3 | 6.1 | 0.00 | 0.00 | 0.00 | 76 | 1004.9 |
| 20260504171002 | 56 | 279 | 5.2 | 7.8 | 0.00 | 0.00 | 0.00 | 73 | 1004.8 |
| 20260504170503 | 57 | 263 | 5.2 | 7.0 | 0.00 | 0.00 | 0.00 | 68 | 1004.8 |
| 20260504151002 | 58 | 236 | 1.7 | 2.6 | 0.00 | 0.06 | 0.00 | 60 | 1005.0 |
| 20260504150502 | 59 | 202 | 2.6 | 4.3 | 0.00 | 0.06 | 0.00 | 59 | 1005.0 |
| 20260504141003 | 56 | 274 | 1.7 | 4.3 | 0.00 | 0.10 | 0.00 | 59 | 1006.0 |
| 20260504140502 | 56 | 146 | 1.7 | 4.3 | 0.00 | 0.11 | 0.00 | 61 | 1006.0 |
| 20260504130503 | 52 | 264 | 0.0 | 0.0 | 0.00 | 0.14 | 0.00 | 61 | 1006.7 |
| 20260504110502 | 43 | 221 | 0.0 | 0.0 | 0.00 | 0.16 | 0.00 | 70 | 1006.9 |
| 20260504100503 | 39 | 205 | 0.0 | 0.0 | 0.00 | 0.16 | 0.00 | 77 | 1006.7 |
| 20260504081503 | 39 | 255 | 0.0 | 0.0 | 0.00 | 0.20 | 0.00 | 78 | 1006.4 |
| 20260504081003 | 39 | 244 | 0.0 | 0.0 | 0.00 | 0.20 | 0.00 | 78 | 1006.5 |
| 20260504050503 | 41 | 248 | 0.0 | 0.0 | 0.00 | 0.21 | 0.00 | 71 | 1006.2 |
| 20260504050003 | 41 | 251 | 0.0 | 0.0 | 0.00 | 0.21 | 0.00 | 71 | 1006.1 |
| 20260504045504 | 41 | 240 | 0.0 | 0.0 | 0.00 | 0.21 | 0.00 | 71 | 1006.1 |
| 20260504045003 | 41 | 248 | 0.0 | 0.0 | 0.00 | 0.21 | 0.00 | 71 | 1006.1 |
| 20260504044504 | 41 | 253 | 0.0 | 0.0 | 0.00 | 0.21 | 0.00 | 71 | 1006.1 |
| 20260504044003 | 41 | 261 | 0.0 | 0.0 | 0.00 | 0.21 | 0.00 | 70 | 1006.1 |
| 20260504043003 | 41 | 257 | 0.0 | 1.7 | 0.00 | 0.21 | 0.00 | 70 | 1006.1 |
| 20260504042504 | 41 | 248 | 1.7 | 2.6 | 0.00 | 0.21 | 0.00 | 70 | 1006.1 |
| 20260504042003 | 41 | 262 | 1.7 | 2.6 | 0.00 | 0.21 | 0.00 | 71 | 1006.1 |
| 20260504041004 | 41 | 261 | 1.7 | 2.6 | 0.00 | 0.21 | 0.00 | 70 | 1006.1 |
| 20260504040003 | 42 | 248 | 1.7 | 2.6 | 0.00 | 0.21 | 0.00 | 69 | 1005.8 |
| 20260504035503 | 42 | 253 | 1.7 | 2.6 | 0.00 | 0.21 | 0.21 | 70 | 1005.8 |
| 20260504035003 | 41 | 261 | 0.9 | 1.7 | 0.00 | 0.21 | 0.21 | 70 | 1005.8 |
| 20260504034503 | 41 | 270 | 0.0 | 0.0 | 0.00 | 0.21 | 0.21 | 71 | 1005.8 |
| 20260504033503 | 42 | 268 | 0.9 | 1.7 | 0.00 | 0.21 | 0.21 | 70 | 1005.8 |
| 20260504033004 | 42 | 270 | 1.7 | 2.6 | 0.00 | 0.21 | 0.21 | 70 | 1005.8 |
| 20260504032503 | 42 | 248 | 1.7 | 2.6 | 0.00 | 0.21 | 0.21 | 70 | 1005.7 |
| 20260504032004 | 42 | 270 | 1.7 | 2.6 | 0.00 | 0.21 | 0.21 | 69 | 1005.7 |
| 20260504031503 | 42 | 270 | 1.7 | 1.7 | 0.00 | 0.21 | 0.21 | 69 | 1005.7 |
| 20260504031004 | 42 | 270 | 1.7 | 1.7 | 0.00 | 0.21 | 0.21 | 68 | 1005.7 |
| 20260504030504 | 42 | 270 | 0.9 | 4.3 | 0.00 | 0.21 | 0.21 | 67 | 1005.7 |
| 20260504030004 | 43 | 270 | 2.6 | 2.6 | 0.00 | 0.21 | 0.21 | 67 | 1005.6 |
| 20260504025503 | 43 | 270 | 2.6 | 2.6 | 0.00 | 0.21 | 0.21 | 66 | 1005.6 |
| 20260504024504 | 43 | 270 | 2.6 | 2.6 | 0.00 | 0.21 | 0.21 | 66 | 1005.5 |
| 20260504023503 | 43 | 263 | 0.0 | 0.0 | 0.00 | 0.21 | 0.21 | 68 | 1005.6 |
| 20260504023004 | 43 | 270 | 0.0 | 0.0 | 0.00 | 0.21 | 0.21 | 65 | 1005.6 |
| 20260504022004 | 43 | 270 | 0.0 | 0.0 | 0.00 | 0.22 | 0.21 | 65 | 1005.6 |
| 20260504021501 | 44 | 270 | 0.0 | 1.7 | 0.00 | 0.23 | 0.21 | 64 | 1005.6 |
| 20260504020501 | 44 | 270 | 2.6 | 6.1 | 0.00 | 0.24 | 0.21 | 62 | 1005.5 |
| 20260504020001 | 44 | 281 | 4.3 | 5.2 | 0.00 | 0.25 | 0.21 | 62 | 1005.2 |
| 20260504015501 | 44 | 270 | 3.5 | 5.2 | 0.00 | 0.25 | 0.21 | 62 | 1005.2 |
| 20260504015001 | 45 | 277 | 4.3 | 7.0 | 0.00 | 0.25 | 0.21 | 60 | 1005.3 |
| 20260504014501 | 44 | 270 | 3.5 | 5.2 | 0.00 | 0.25 | 0.21 | 61 | 1005.3 |
| 20260504014002 | 45 | 289 | 2.6 | 5.2 | 0.00 | 0.25 | 0.21 | 61 | 1005.3 |
| 20260504013501 | 45 | 270 | 4.3 | 5.2 | 0.00 | 0.25 | 0.21 | 61 | 1005.1 |
| 20260504013001 | 45 | 270 | 4.3 | 8.7 | 0.00 | 0.25 | 0.21 | 58 | 1005.1 |
| 20260504012502 | 45 | 270 | 4.3 | 6.1 | 0.00 | 0.25 | 0.21 | 60 | 1004.9 |
| 20260504012001 | 45 | 285 | 4.3 | 6.1 | 0.00 | 0.25 | 0.21 | 61 | 1004.9 |
| 20260504011501 | 45 | 285 | 3.5 | 5.2 | 0.00 | 0.25 | 0.21 | 61 | 1004.9 |
| 20260504011002 | 45 | 281 | 1.7 | 4.3 | 0.00 | 0.25 | 0.21 | 61 | 1004.9 |
| 20260504010501 | 46 | 270 | 2.6 | 4.3 | 0.00 | 0.25 | 0.21 | 58 | 1004.9 |
| 20260504010002 | 46 | 292 | 8.7 | 8.7 | 0.00 | 0.26 | 0.21 | 56 | 1004.6 |
| 20260504004501 | 46 | 292 | 4.3 | 7.0 | 0.00 | 0.26 | 0.21 | 57 | 1004.4 |
| 20260504003501 | 46 | 290 | 4.3 | 7.0 | 0.00 | 0.26 | 0.21 | 58 | 1004.2 |
| 20260504003001 | 46 | 270 | 4.3 | 6.1 | 0.00 | 0.26 | 0.21 | 56 | 1004.2 |
| 20260504001501 | 47 | 270 | 4.3 | 7.8 | 0.00 | 0.26 | 0.21 | 54 | 1004.1 |
| 20260504001002 | 47 | 258 | 3.5 | 7.0 | 0.00 | 0.26 | 0.21 | 54 | 1003.8 |
| 20260504000502 | 47 | 270 | 2.6 | 4.3 | 0.00 | 0.26 | 0.21 | 54 | 1003.8 |
| 20260504000002 | 47 | 283 | 5.2 | 7.8 | 0.00 | 0.27 | 0.21 | 54 | 1003.7 |
| 20260503235502 | 47 | 337 | 4.3 | 7.0 | 0.00 | 0.27 | 0.21 | 53 | 1003.7 |
| 20260503235002 | 47 | 270 | 5.2 | 6.1 | 0.00 | 0.27 | 0.21 | 54 | 1003.6 |
| 20260503234501 | 48 | 270 | 2.6 | 7.8 | 0.00 | 0.27 | 0.21 | 53 | 1003.6 |
| 20260503233501 | 48 | 270 | 4.3 | 10.4 | 0.00 | 0.27 | 0.21 | 53 | 1003.4 |
| 20260503233001 | 48 | 283 | 5.2 | 10.4 | 0.00 | 0.27 | 0.21 | 51 | 1003.4 |
| 20260503232502 | 49 | 278 | 7.8 | 10.4 | 0.00 | 0.28 | 0.21 | 50 | 1003.2 |
| 20260503232002 | 49 | 270 | 7.0 | 11.3 | 0.00 | 0.28 | 0.21 | 49 | 1003.2 |